User: anonymous   Login
Location: Unspecified
(0.0000°N, 0.0000°E)
Time: 00:23:56
(UTC+00:00)
Language:

SRMSAT - Orbit

View from above orbital plane
View from above orbital plane
View from above satellite
View from above satellite

Ground track
Ground track

The orbit data is extracted from the following two-line orbital elements,

1 37841U 11058D   18201.48253104  .00000297  00000-0  17927-4 0  9995
2 37841  19.9709 245.2463 0011935 135.3905   0.4720 14.10610184349589
Epoch (UTC): 20 July 2018 11:34:50
Eccentricity: 0.0011935
inclination: 19.9709°
perigee height: 848 km
apogee height: 866 km
right ascension of ascending node: 245.2463°
argument of perigee: 135.3905°
revolutions per day: 14.10610184
mean anomaly at epoch: 0.4720°
orbit number at epoch: 34958

The dashed part of the orbit path shows where the satellite is in the earth's shadow,  

DLR